Вернуться в каталог

COSMOS 1275 DEB

АктивенPO
NORAD 42120·DEBRIS·🇷🇺 Russia

Запущен Jun 4, 1981 с Plesetsk Cosmodrome

Loading…

Ближайшие Пролёты (ближайшие 24 часа)

TLE

СвежийSource: Space-Track

Эпоха: Sep 13, 2026, 13:00 UTC

1 42120U 81053QG  26256.54168940  .00000734  00000-0  87507-3 0  9998
2 42120  82.9295 342.0429 0192462 125.1553 236.7796 13.58388289633362

Отслеживайте COSMOS 1275 DEB в реальном времени с AllMySat

Download on the App Store